Simultaneous Nadir Overpasses (SNOs) Predictions

Prediction of SNOs between AQUA and NPP Satellite Orbit:

Table of predicted SNOs for the next 14.0 days since TLE Epoch: 12/22/2017
Index Date (AQUA) Time (AQUA) Lat,Lon (AQUA) SZA (AQUA ) Date (NPP) Time (NPP) Lat,Lon (NPP) SZA (NPP ) Distance(km) Time Diff (sec)
1 12/23/2017 21:48:47 75.79, 91.29 120.20 12/23/2017 21:48:07 75.78, 91.24 120.25 1.42 40
2 12/23/2017 22:37:50 -76.95, -97.22 61.08 12/23/2017 22:38:27 -76.95, -97.19 61.12 0.88 37
3 12/26/2017 14:05:12 76.06,-151.99 119.90 12/26/2017 14:04:55 76.05,-152.08 119.94 2.45 17
4 12/26/2017 14:54:16 -77.16, 19.46 61.33 12/26/2017 14:55:16 -77.16, 19.47 61.38 0.19 60
5 12/29/2017 05:32:29 -75.45, 154.43 59.50 12/29/2017 05:31:18 -75.45, 154.42 59.43 0.38 71
6 12/29/2017 06:21:36 76.37, -35.11 119.50 12/29/2017 06:21:42 76.36, -35.21 119.52 2.84 6
7 12/31/2017 21:48:52 -75.81, -88.64 59.99 12/31/2017 21:48:04 -75.81, -88.65 59.95 0.36 48
8 12/31/2017 22:38:00 76.68, 81.80 119.05 12/31/2017 22:38:29 76.67, 81.70 119.05 2.58 29
9 01/03/2018 14:05:12 -76.26, 28.63 60.65 01/03/2018 14:04:47 -76.26, 28.65 60.63 0.37 25




NCC Satellite Simultaneous Nadir Overpasses (SNOs) Prediction Service
